CW9181 Weather Reports


time (UTC)temp
F
wind
direction
speed
knots
gust
knots
rain 1hr
in
rain 24hr
in
rain mn
in
humidity
%
barometer
mb
20260903041018 70 199 0.9 2.6 0.00 0.00 0.00 55 1015.4
20260903040018 70 180 0.9 2.6 0.00 0.00 0.00 54 1015.1
20260903035015 71 241 0.9 3.5 0.00 0.00 0.00 54 1015.0
20260903034013 71 233 0.9 4.3 0.00 0.00 0.00 53 1014.8
20260903033017 71 209 1.7 4.3 0.00 0.00 0.00 54 1014.8
20260903032012 71 260 1.7 4.3 0.00 0.00 0.00 54 1014.8
20260903031012 72 203 0.9 2.6 0.00 0.00 0.00 54 1014.6
20260903030034 72 247 0.9 4.3 0.00 0.00 0.00 54 1014.7
20260903025032 73 216 0.9 2.6 0.00 0.00 0.00 54 1014.7
20260903024012 73 194 0.9 5.2 0.00 0.00 0.00 53 1014.7
20260903023015 74 251 1.7 7.0 0.00 0.00 0.00 53 1014.7
20260903022012 74 239 3.5 8.7 0.00 0.00 0.00 52 1014.8
20260903021017 75 244 1.7 8.7 0.00 0.00 0.00 52 1014.7
20260903020019 75 250 2.6 7.8 0.00 0.00 0.00 52 1014.7
20260903015037 76 226 1.7 6.1 0.00 0.00 0.00 51 1014.7
20260903014038 77 234 2.6 8.7 0.00 0.00 0.00 50 1014.8
20260903013023 77 265 1.7 11.3 0.00 0.00 0.00 50 1014.9
20260903012023 77 251 6.1 7.8 0.00 0.00 0.00 49 1015.0
20260903011044 77 182 2.6 8.7 0.00 0.00 0.00 49 1015.0
20260903010025 76 239 2.6 11.3 0.00 0.00 0.00 50 1014.9
20260903005020 77 132 2.6 8.7 0.00 0.00 0.00 50 1014.9
20260903004046 78 182 2.6 7.8 0.00 0.00 0.00 48 1015.2
20260903003117 79 245 2.6 9.6 0.00 0.00 0.00 47 1015.2
20260903003029 79 245 2.6 9.6 0.00 0.00 0.00 47 1015.2
20260903002024 78 218 3.5 11.3 0.00 0.00 0.00 49 1015.2
20260903001010 78 253 3.5 7.0 0.00 0.00 0.00 50 1015.4
20260903000012 78 234 4.3 8.7 0.00 0.00 0.00 49 1015.4
20260902235026 78 234 5.2 9.6 0.00 0.00 0.00 50 1015.4
20260902234026 77 270 2.6 10.4 0.00 0.00 0.00 50 1015.5
20260902233010 78 188 5.2 11.3 0.00 0.00 0.00 50 1015.5
20260902232025 78 295 4.3 8.7 0.00 0.00 0.00 50 1015.7
20260902231028 78 185 2.6 13.0 0.00 0.00 0.00 50 1015.6
20260902230027 78 289 5.2 10.4 0.00 0.00 0.00 48 1015.6
20260902225009 79 188 3.5 7.8 0.00 0.00 0.00 48 1015.7
20260902224026 79 249 6.1 11.3 0.00 0.00 0.00 49 1016.0
20260902223028 79 196 5.2 10.4 0.00 0.00 0.00 48 1016.0
20260902222010 79 213 4.3 8.7 0.00 0.00 0.00 47 1016.0
20260902221045 78 193 6.1 10.4 0.00 0.00 0.00 49 1016.0
20260902220026 78 265 4.3 9.6 0.00 0.00 0.00 50 1016.1
20260902215027 77 270 5.2 9.6 0.00 0.00 0.00 50 1016.2
20260902214023 76 311 3.5 8.7 0.00 0.00 0.00 50 1016.5
20260902213027 78 260 3.5 8.7 0.00 0.00 0.00 49 1016.5
20260902212012 78 255 1.7 8.7 0.00 0.00 0.00 49 1016.6
20260902211038 77 175 2.6 9.6 0.00 0.00 0.00 52 1016.6
20260902210019 75 270 3.5 9.6 0.00 0.00 0.00 52 1016.6
20260902205022 76 295 3.5 8.7 0.00 0.00 0.00 53 1016.7
20260902204018 77 251 3.5 8.7 0.00 0.00 0.00 52 1016.8
20260902203105 75 274 4.3 9.6 0.00 0.00 0.00 53 1016.9
20260902202014 77 184 3.5 9.6 0.00 0.00 0.00 53 1017.1
20260902201031 76 254 3.5 7.0 0.00 0.00 0.00 53 1017.2
20260902200009 75 249 3.5 7.0 0.00 0.00 0.00 56 1017.3
20260902195048 75 238 2.6 7.8 0.00 0.00 0.00 56 1017.3
20260902194031 75 245 4.3 9.6 0.00 0.00 0.00 55 1017.4
20260902193034 75 227 2.6 8.7 0.00 0.00 0.00 55 1017.6
20260902192009 74 253 4.3 8.7 0.00 0.00 0.00 56 1017.6
20260902191016 74 230 2.6 4.3 0.00 0.00 0.00 55 1017.8
20260902190036 74 196 4.3 6.1 0.00 0.00 0.00 56 1017.9
20260902185011 74 103 1.7 3.5 0.00 0.00 0.00 56 1017.8
20260902184016 73 306 0.9 5.2 0.00 0.00 0.00 59 1017.8
20260902183020 73 284 2.6 4.3 0.00 0.00 0.00 58 1017.9
20260902182038 74 164 2.6 7.0 0.00 0.00 0.00 57 1018.0
20260902181016 74 124 2.6 6.1 0.00 0.00 0.00 58 1017.9
20260902180016 74 247 3.5 7.8 0.00 0.00 0.00 58 1017.9
20260902175009 74 282 3.5 7.0 0.00 0.00 0.00 59 1018.0
20260902174035 73 107 3.5 5.2 0.00 0.00 0.00 60 1018.0
20260902173018 72 149 2.6 5.2 0.00 0.00 0.00 62 1017.9
20260902172020 70 223 2.6 4.3 0.00 0.00 0.00 64 1017.8
20260902171023 72 140 1.7 6.1 0.00 0.00 0.00 62 1017.8
20260902170022 70 64 0.9 6.1 0.00 0.00 0.00 64 1017.7
20260902165024 70 104 3.5 7.8 0.00 0.00 0.00 66 1017.7
20260902164041 69 95 1.7 4.3 0.00 0.00 0.00 66 1017.6
20260902163019 68 156 1.7 6.1 0.00 0.00 0.00 67 1017.5
20260902162019 68 162 3.5 6.1 0.00 0.00 0.00 68 1017.5
20260902161021 68 168 2.6 4.3 0.00 0.00 0.00 69 1017.6
20260902160043 67 118 1.7 4.3 0.00 0.00 0.00 70 1017.8
20260902155010 66 178 2.6 6.1 0.00 0.00 0.00 72 1017.6
20260902154013 65 153 2.6 4.3 0.00 0.00 0.00 73 1017.7
20260902153050 64 122 3.5 4.3 0.00 0.00 0.00 74 1017.7
20260902153014 64 122 3.5 4.3 0.00 0.00 0.00 74 1017.7
20260902152028 63 172 1.7 5.2 0.00 0.00 0.00 77 1017.6
20260902151028 62 101 1.7 4.3 0.00 0.00 0.00 78 1017.6
20260902150008 62 107 1.7 3.5 0.00 0.00 0.00 79 1017.5
20260902145026 61 85 2.6 4.3 0.00 0.00 0.00 79 1017.5
20260902144009 61 101 2.6 3.5 0.00 0.00 0.00 79 1017.3
20260902143010 61 130 3.5 6.1 0.00 0.00 0.00 80 1017.2
20260902142014 60 89 4.3 5.2 0.00 0.00 0.00 80 1017.1
20260902141010 60 108 1.7 3.5 0.00 0.00 0.00 81 1017.2
20260902140031 60 122 0.0 3.5 0.00 0.00 0.00 81 1017.2
20260902135049 60 131 0.9 3.5 0.00 0.00 0.00 81 1017.1
20260902134026 60 128 0.9 2.6 0.00 0.00 0.00 81 1016.9
20260902133009 59 106 1.7 2.6 0.00 0.00 0.00 81 1016.9
20260902132033 60 143 0.9 2.6 0.00 0.00 0.00 81 1016.9
20260902131015 60 126 1.7 4.3 0.00 0.00 0.00 81 1016.7
20260902130016 60 139 2.6 4.3 0.00 0.00 0.00 80 1016.8
20260902125037 60 141 0.9 4.3 0.00 0.00 0.00 80 1016.7
20260902124022 60 145 1.7 3.5 0.00 0.00 0.00 80 1016.6
20260902123048 60 126 0.9 4.3 0.00 0.00 0.00 80 1016.5
20260902122014 60 137 2.6 5.2 0.00 0.00 0.00 80 1016.6
20260902121012 60 102 2.6 4.3 0.00 0.00 0.00 80 1016.6
20260902120016 60 102 2.6 4.3 0.00 0.00 0.00 80 1016.6
20260902115020 60 128 2.6 6.1 0.00 0.00 0.00 80 1016.6
20260902114020 60 135 2.6 6.1 0.00 0.00 0.00 80 1016.7
20260902113025 60 114 2.6 5.2 0.00 0.00 0.00 80 1016.5
20260902112027 60 83 1.7 4.3 0.00 0.00 0.00 80 1016.3
20260902111025 60 141 2.6 4.3 0.00 0.00 0.00 80 1016.4
20260902110008 60 110 2.6 4.3 0.00 0.00 0.00 80 1016.5
20260902105014 59 150 2.6 4.3 0.00 0.00 0.00 80 1016.7
20260902104019 59 120 2.6 4.3 0.00 0.00 0.00 80 1016.7
20260902103019 59 172 2.6 4.3 0.00 0.00 0.00 80 1016.7
20260902102042 59 132 1.7 3.5 0.00 0.00 0.00 79 1016.7
20260902101021 59 132 2.6 4.3 0.00 0.00 0.00 79 1016.8
20260902100026 59 122 1.7 4.3 0.00 0.00 0.00 79 1016.9
20260902095012 59 121 1.7 3.5 0.00 0.00 0.00 79 1016.9
20260902094012 60 128 1.7 3.5 0.00 0.00 0.00 79 1016.8
20260902093013 60 120 1.7 3.5 0.00 0.00 0.00 79 1016.8
20260902092038 60 130 1.7 5.2 0.00 0.00 0.00 79 1016.9
20260902091042 60 143 1.7 4.3 0.00 0.00 0.00 78 1016.8
20260902090021 60 149 1.7 5.2 0.00 0.00 0.00 78 1016.8
20260902085023 60 121 1.7 3.5 0.00 0.00 0.00 78 1016.8
20260902084026 60 105 2.6 4.3 0.00 0.00 0.00 78 1016.8
20260902083025 60 88 2.6 4.3 0.00 0.00 0.00 77 1016.9
20260902082011 60 119 2.6 6.1 0.00 0.00 0.00 77 1016.8
20260902081014 61 116 2.6 5.2 0.00 0.00 0.00 77 1016.7
20260902080013 61 137 2.6 6.1 0.00 0.00 0.00 77 1016.6
20260902075038 61 176 2.6 7.0 0.00 0.00 0.00 77 1016.3
20260902074021 61 138 2.6 6.1 0.00 0.00 0.00 76 1016.4
20260902073043 61 120 4.3 7.8 0.00 0.00 0.00 76 1016.4
20260902072025 61 132 4.3 7.0 0.00 0.00 0.00 76 1016.4
20260902071048 61 152 2.6 5.2 0.00 0.00 0.00 75 1016.5
20260902070022 61 143 3.5 7.0 0.00 0.00 0.00 75 1016.4
20260902065045 62 137 3.5 7.8 0.00 0.00 0.00 74 1016.5
20260902064024 62 119 4.3 7.0 0.00 0.00 0.00 74 1016.3
20260902063027 62 99 2.6 6.1 0.00 0.00 0.00 74 1016.5
20260902062023 62 135 3.5 5.2 0.00 0.00 0.00 73 1016.5
20260902061043 62 185 2.6 4.3 0.00 0.00 0.00 73 1016.6
20260902060017 63 121 2.6 8.7 0.00 0.00 0.00 72 1016.7
20260902055018 63 137 3.5 6.1 0.00 0.00 0.00 72 1016.6
20260902054038 63 184 1.7 4.3 0.00 0.00 0.00 70 1016.7
20260902053017 63 195 3.5 7.0 0.00 0.00 0.00 70 1016.6
20260902052020 64 186 3.5 6.1 0.00 0.00 0.00 69 1016.5
20260902051044 64 174 1.7 4.3 0.00 0.00 0.00 67 1016.5
20260902050020 64 150 3.5 7.0 0.00 0.00 0.00 67 1016.5
20260902045021 65 223 0.9 7.0 0.00 0.00 0.00 66 1016.4
20260902044020 65 150 2.6 7.8 0.00 0.00 0.00 66 1016.3
20260902043020 65 216 3.5 8.7 0.00 0.00 0.00 65 1016.1
20260902042018 66 196 3.5 10.4 0.00 0.00 0.00 64 1016.0